When you browse on this site, cookies collect data to enhance your experience and personalize the content and advertising you see.
Visit our Privacy Policy to learn more. By continuing to use the site, you agree to this use of cookies and data.
  • en France
  • Liste des pays
  • À 7 jours
  • Température de l'eau
  • Carte satellitaire
  • Carte météo
  • Widgets météo
  • user-avatar
    Se connecter

    Météo par heure à Myshkovo

    Ce jour, 19 Février, Mardi

    Heure Température Précipitation Vent Pression Humidité
    00:00 -6°C° 0 mm 3 m/s 752 mmHg 82%
    01:00 -6°C° 0 mm 3 m/s 751 mmHg 80%
    02:00 -6°C° 0 mm 3 m/s 751 mmHg 80%
    03:00 -6°C° 0 mm 3 m/s 750 mmHg 79%
    04:00 -7°C° 0 mm 4 m/s 749 mmHg 77%
    05:00 -7°C° 0 mm 4 m/s 749 mmHg 76%
    06:00 -7°C° 0 mm 4 m/s 748 mmHg 77%
    07:00 -5°C° 0 mm 4 m/s 748 mmHg 78%
    08:00 -5°C° 0 mm 4 m/s 747 mmHg 78%
    09:00 -5°C° 0 mm 5 m/s 747 mmHg 78%
    10:00 -2°C° 0 mm 5 m/s 746 mmHg 78%
    11:00 -1°C° 0 mm 5 m/s 746 mmHg 78%
    12:00 0°C° 0 mm 5 m/s 745 mmHg 78%
    13:00 0°C° 0 mm 5 m/s 745 mmHg 78%
    14:00 +1°C° 0 mm 5 m/s 744 mmHg 78%
    15:00 0°C° 0 mm 5 m/s 743 mmHg 81%
    16:00 0°C° 0 mm 5 m/s 743 mmHg 83%
    17:00 0°C° 0 mm 5 m/s 742 mmHg 86%
    18:00 0°C° 0 mm 5 m/s 741 mmHg 87%
    19:00 0°C° 0 mm 5 m/s 741 mmHg 87%
    20:00 0°C° 0 mm 5 m/s 740 mmHg 88%
    21:00 0°C° 0 mm 5 m/s 739 mmHg 89%
    22:00 0°C° 0 mm 5 m/s 738 mmHg 90%
    23:00 0°C° 0 mm 4 m/s 738 mmHg 91%

    Demain, 20 Février, Mercredi

    Heure Température Précipitation Vent Pression Humidité
    00:00 0°C° 0.1 mm 4 m/s 737 mmHg 91%
    01:00 0°C° 0.1 mm 4 m/s 737 mmHg 91%
    02:00 0°C° 0.1 mm 4 m/s 737 mmHg 91%
    03:00 0°C° 0.2 mm 4 m/s 736 mmHg 92%
    04:00 0°C° 0.2 mm 4 m/s 736 mmHg 92%
    05:00 0°C° 0.2 mm 4 m/s 736 mmHg 93%
    06:00 0°C° 0.1 mm 4 m/s 736 mmHg 93%
    07:00 0°C° 0.1 mm 4 m/s 736 mmHg 92%
    08:00 0°C° 0.1 mm 4 m/s 736 mmHg 92%
    09:00 0°C° 0.1 mm 4 m/s 736 mmHg 91%
    10:00 0°C° 0.1 mm 4 m/s 735 mmHg 90%
    11:00 +1°C° 0.1 mm 4 m/s 735 mmHg 89%
    12:00 +1°C° 0.1 mm 4 m/s 735 mmHg 88%
    13:00 +1°C° 0.1 mm 4 m/s 735 mmHg 87%
    14:00 +1°C° 0.1 mm 5 m/s 735 mmHg 85%
    15:00 +1°C° 0.3 mm 4 m/s 735 mmHg 86%
    16:00 0°C° 0.3 mm 4 m/s 734 mmHg 86%
    17:00 0°C° 0.3 mm 4 m/s 734 mmHg 87%
    18:00 0°C° 0.3 mm 4 m/s 734 mmHg 84%
    19:00 -1°C° 0.3 mm 5 m/s 734 mmHg 82%
    20:00 -1°C° 0.3 mm 5 m/s 734 mmHg 79%
    21:00 -2°C° 0.2 mm 5 m/s 735 mmHg 82%
    22:00 -4°C° 0.2 mm 5 m/s 735 mmHg 85%
    23:00 -4°C° 0.2 mm 5 m/s 735 mmHg 88%

    Après-demain, 21 Février, Jeudi

    Heure Température Précipitation Vent Pression Humidité
    00:00 -5°C° 0.2 mm 5 m/s 736 mmHg 86%
    01:00 -5°C° 0.2 mm 6 m/s 737 mmHg 83%
    02:00 -5°C° 0.2 mm 6 m/s 737 mmHg 80%
    03:00 -5°C° 0.1 mm 6 m/s 738 mmHg 78%
    04:00 -6°C° 0.1 mm 6 m/s 738 mmHg 77%
    05:00 -6°C° 0.1 mm 6 m/s 739 mmHg 75%
    06:00 -8°C° 0.1 mm 6 m/s 739 mmHg 74%
    07:00 -8°C° 0.1 mm 6 m/s 740 mmHg 72%
    08:00 -9°C° 0.1 mm 6 m/s 741 mmHg 71%
    09:00 -9°C° 0.1 mm 6 m/s 741 mmHg 71%
    10:00 -8°C° 0.1 mm 7 m/s 742 mmHg 70%
    11:00 -8°C° 0.1 mm 7 m/s 742 mmHg 69%
    12:00 -8°C° 0 mm 7 m/s 743 mmHg 69%
    13:00 -8°C° 0 mm 7 m/s 744 mmHg 68%
    14:00 -8°C° 0 mm 6 m/s 744 mmHg 67%
    15:00 -8°C° 0 mm 6 m/s 745 mmHg 68%
    16:00 -9°C° 0 mm 6 m/s 746 mmHg 69%
    17:00 -9°C° 0 mm 6 m/s 747 mmHg 70%
    18:00 -10°C° 0 mm 6 m/s 747 mmHg 70%
    19:00 -11°C° 0 mm 6 m/s 748 mmHg 71%
    20:00 -11°C° 0 mm 6 m/s 749 mmHg 71%
    21:00 -11°C° 0 mm 5 m/s 750 mmHg 71%
    22:00 -12°C° 0 mm 5 m/s 750 mmHg 71%
    23:00 -12°C° 0 mm 5 m/s 751 mmHg 70%

    22 Février, Vendredi

    Heure Température Précipitation Vent Pression Humidité
    00:00 -12°C° 0 mm 5 m/s 752 mmHg 70%
    01:00 -13°C° 0 mm 5 m/s 752 mmHg 71%
    02:00 -13°C° 0 mm 5 m/s 753 mmHg 71%
    03:00 -13°C° 0 mm 5 m/s 754 mmHg 71%
    04:00 -13°C° 0 mm 5 m/s 754 mmHg 71%
    05:00 -14°C° 0 mm 5 m/s 755 mmHg 71%
    06:00 -14°C° 0 mm 4 m/s 755 mmHg 72%
    07:00 -12°C° 0 mm 4 m/s 756 mmHg 73%
    08:00 -12°C° 0 mm 4 m/s 757 mmHg 74%
    09:00 -11°C° 0 mm 4 m/s 757 mmHg 71%
    10:00 -11°C° 0 mm 5 m/s 757 mmHg 69%
    11:00 -10°C° 0 mm 5 m/s 757 mmHg 66%
    12:00 -10°C° 0 mm 5 m/s 757 mmHg 62%
    13:00 -10°C° 0 mm 6 m/s 757 mmHg 59%
    14:00 -9°C° 0 mm 6 m/s 756 mmHg 55%
    15:00 -10°C° 0 mm 6 m/s 757 mmHg 60%
    16:00 -10°C° 0 mm 6 m/s 757 mmHg 66%
    17:00 -11°C° 0 mm 5 m/s 757 mmHg 71%
    18:00 -11°C° 0 mm 5 m/s 758 mmHg 72%
    19:00 -12°C° 0 mm 5 m/s 758 mmHg 73%
    20:00 -12°C° 0 mm 5 m/s 759 mmHg 74%
    21:00 -13°C° 0 mm 5 m/s 759 mmHg 74%
    22:00 -13°C° 0 mm 5 m/s 760 mmHg 73%
    23:00 -14°C° 0 mm 5 m/s 760 mmHg 72%

    23 Février, Samedi

    Heure Température Précipitation Vent Pression Humidité
    00:00 -14°C° 0 mm 4 m/s 760 mmHg 74%
    01:00 -14°C° 0 mm 4 m/s 761 mmHg 76%
    02:00 -15°C° 0 mm 4 m/s 761 mmHg 78%
    03:00 -14°C° 0 mm 3 m/s 761 mmHg 79%
    04:00 -14°C° 0 mm 3 m/s 761 mmHg 81%
    05:00 -14°C° 0 mm 3 m/s 761 mmHg 83%
    06:00 -14°C° 0 mm 3 m/s 761 mmHg 83%
    07:00 -14°C° 0 mm 3 m/s 762 mmHg 84%
    08:00 -14°C° 0 mm 3 m/s 762 mmHg 84%
    09:00 -13°C° 0 mm 3 m/s 762 mmHg 80%
    10:00 -10°C° 0 mm 2 m/s 762 mmHg 76%
    11:00 -9°C° 0 mm 2 m/s 762 mmHg 72%
    12:00 -9°C° 0 mm 2 m/s 762 mmHg 68%
    13:00 -8°C° 0 mm 2 m/s 762 mmHg 65%
    14:00 -7°C° 0 mm 2 m/s 761 mmHg 61%
    15:00 -7°C° 0 mm 2 m/s 761 mmHg 64%
    16:00 -7°C° 0 mm 1 m/s 761 mmHg 66%
    17:00 -7°C° 0 mm 1 m/s 761 mmHg 69%
    18:00 -7°C° 0 mm 1 m/s 762 mmHg 70%
    19:00 -7°C° 0 mm 1 m/s 762 mmHg 72%
    20:00 -7°C° 0 mm 0 m/s 762 mmHg 73%
    21:00 -8°C° 0 mm 0 m/s 762 mmHg 73%
    22:00 -8°C° 0 mm 0 m/s 762 mmHg 73%
    23:00 -8°C° 0 mm 0 m/s 762 mmHg 73%

    24 Février, Dimanche

    Heure Température Précipitation Vent Pression Humidité
    00:00 -8°C° 0 mm 0 m/s 762 mmHg 73%
    01:00 -8°C° 0 mm 1 m/s 762 mmHg 74%
    02:00 -8°C° 0 mm 1 m/s 763 mmHg 74%
    03:00 -8°C° 0 mm 1 m/s 762 mmHg 76%
    04:00 -8°C° 0 mm 1 m/s 762 mmHg 78%
    05:00 -8°C° 0 mm 1 m/s 762 mmHg 80%
    06:00 -7°C° 0 mm 1 m/s 762 mmHg 82%
    07:00 -7°C° 0 mm 1 m/s 762 mmHg 84%
    08:00 -6°C° 0 mm 1 m/s 762 mmHg 86%
    09:00 -6°C° 0 mm 2 m/s 762 mmHg 86%
    10:00 -5°C° 0 mm 2 m/s 762 mmHg 85%
    11:00 -4°C° 0 mm 2 m/s 762 mmHg 85%
    12:00 -4°C° 0 mm 2 m/s 762 mmHg 84%
    13:00 -3°C° 0 mm 2 m/s 762 mmHg 83%
    14:00 -2°C° 0 mm 2 m/s 761 mmHg 82%
    15:00 -2°C° 0 mm 2 m/s 761 mmHg 84%
    16:00 -2°C° 0 mm 2 m/s 761 mmHg 87%
    17:00 -3°C° 0 mm 2 m/s 760 mmHg 89%
    18:00 -3°C° 0 mm 2 m/s 760 mmHg 89%
    19:00 -3°C° 0 mm 2 m/s 760 mmHg 90%
    20:00 -4°C° 0 mm 3 m/s 759 mmHg 90%
    21:00 -4°C° 0 mm 3 m/s 759 mmHg 91%
    22:00 -4°C° 0 mm 3 m/s 759 mmHg 92%
    23:00 -4°C° 0 mm 3 m/s 758 mmHg 93%
    Voir plus